Theta_e
334 333 333 332 332 332 332 332 332 331 330 330 331 331 332 332 331 330 330 329 328 329 329 329 329 329 331 331 332 329 324 322 322 321 321 321 321 320 321 323 324 325 324 321 319 321 322 321 320 321 320 324 331 333 332 334 333 329 329 330 330 329
336 335 334 334 333 332 332 332 332 332 331 331 332 332 332 332 332 331 331 330 329 330 330 330 329 329 330 330 331 328 324 323 322 321 321 321 321 322 322 321 322 324 325 324 322 321 323 324 323 322 321 323 330 333 333 334 333 331 330 331 331 330
337 336 336 335 335 335 333 332 332 332 332 332 332 332 333 332 332 331 331 330 330 330 330 330 330 330 330 330 330 328 325 323 322 321 321 322 321 321 321 319 319 321 323 325 324 321 322 324 324 324 323 323 326 331 333 333 333 332 332 332 331 330
338 337 337 336 336 336 335 335 334 333 333 334 333 333 333 333 331 331 331 330 330 331 330 330 331 331 331 330 330 329 326 323 322 322 321 321 320 320 320 318 317 318 320 323 325 322 322 326 325 325 325 325 325 325 328 332 333 332 332 332 331 331
338 336 335 336 335 336 336 336 336 335 335 335 334 334 333 333 331 329 331 331 330 330 331 331 330 331 331 330 330 330 328 325 323 322 322 321 320 323 325 323 322 318 316 321 326 324 325 327 327 326 326 329 329 325 325 332 333 333 333 332 332 331
336 335 335 335 335 336 336 337 337 336 336 334 334 334 334 333 331 331 332 332 330 330 330 330 331 331 330 330 330 331 329 326 324 323 324 322 322 327 329 328 329 323 316 320 326 327 328 328 328 328 326 329 332 328 328 333 334 333 333 332 332 332
334 334 334 335 335 335 336 336 336 336 335 333 332 333 333 331 331 332 332 331 329 329 330 331 332 331 330 330 331 331 329 327 326 326 327 325 324 330 331 330 331 328 323 325 328 328 328 329 329 329 326 327 330 329 329 332 333 334 334 333 333 332
332 332 333 333 334 334 334 334 334 334 334 332 331 331 332 331 331 332 331 330 329 330 332 332 332 331 330 330 330 331 330 329 329 328 329 328 326 330 331 330 331 330 328 327 327 328 328 328 329 328 327 327 328 329 329 331 333 335 334 333 333 332
330 331 332 333 333 333 332 331 331 332 331 329 329 330 331 331 332 332 331 331 331 332 333 332 331 330 330 329 330 331 330 329 330 329 329 330 328 330 330 329 330 330 329 327 326 328 328 328 328 328 327 326 328 329 330 331 332 334 334 333 333 333
331 331 332 331 331 332 331 330 331 331 329 328 328 330 330 330 331 332 331 331 332 332 332 332 330 329 330 329 330 330 330 330 330 330 330 331 330 329 330 331 330 330 330 328 326 327 328 326 326 327 326 326 328 329 330 331 330 332 333 334 334 333
333 332 332 331 331 332 332 331 331 331 330 328 328 328 328 329 330 332 332 332 331 331 331 332 331 330 331 330 331 331 331 331 331 331 330 331 331 330 330 330 330 329 330 329 327 327 327 327 326 326 326 326 327 327 328 330 330 330 332 333 334 332
333 333 332 332 331 330 330 330 330 330 330 329 329 328 327 329 330 332 332 332 331 331 331 332 332 331 331 332 332 332 332 331 331 331 330 331 331 331 330 330 330 329 330 329 328 328 328 327 326 326 326 326 327 325 325 328 329 329 330 331 333 332
332 332 332 330 327 328 329 329 328 328 329 329 329 328 328 330 330 330 331 331 332 332 332 332 331 331 332 332 331 331 331 331 331 330 330 331 330 330 330 329 329 329 329 329 328 328 327 326 325 325 325 326 326 325 324 327 328 328 329 330 331 331
332 332 331 327 324 325 328 328 327 328 328 329 329 328 329 330 329 328 330 331 331 332 331 331 330 330 329 328 329 329 330 330 330 329 329 330 330 329 328 328 328 328 329 329 328 327 327 325 325 324 325 325 326 326 325 326 327 328 328 329 330 330
331 331 330 327 326 326 327 327 325 326 327 328 328 327 328 329 329 329 329 329 330 331 331 330 330 329 327 326 327 329 330 329 329 329 330 330 329 328 327 326 327 328 329 329 329 328 326 325 324 324 324 325 326 326 326 327 327 327 327 328 330 330
330 331 329 327 328 327 326 326 324 323 322 325 326 325 326 328 328 329 329 329 330 330 330 330 330 330 329 328 328 328 329 329 329 329 330 330 329 329 328 328 328 329 330 329 328 327 326 325 325 324 324 325 325 327 327 327 327 327 327 328 329 330
321 325 323 323 326 326 327 327 325 323 321 322 324 324 325 326 325 327 329 330 330 329 328 328 329 329 329 329 329 329 329 329 329 329 330 330 330 329 329 329 330 330 330 329 328 327 326 327 325 321 322 324 326 327 327 328 328 327 327 327 329 329
313 316 316 317 319 322 325 324 321 324 325 324 324 324 325 326 325 325 326 328 329 327 326 326 327 326 327 328 328 328 329 329 329 329 329 329 329 329 329 329 330 330 330 329 328 327 326 328 323 317 319 324 325 327 327 328 328 328 328 327 328 328
312 312 313 313 313 316 318 316 317 323 327 326 326 325 325 325 324 324 323 325 327 326 325 324 324 325 325 326 327 327 328 328 328 329 329 329 328 329 329 329 330 330 330 329 329 327 327 328 324 318 320 324 325 325 326 327 328 328 327 327 328 328
312 312 312 313 312 313 315 316 319 322 323 324 325 326 326 325 325 325 322 321 322 323 325 324 324 325 324 324 324 324 325 324 325 327 327 328 328 328 328 328 330 330 330 329 329 328 328 328 327 323 322 323 321 322 324 326 327 327 327 327 327 327
313 313 313 312 312 314 317 319 322 323 322 322 321 321 323 324 323 322 318 316 315 317 320 320 321 323 322 323 322 321 320 319 321 325 326 327 328 328 327 328 329 329 329 329 328 328 328 328 328 327 326 325 322 321 323 326 326 326 326 326 327 327
313 313 313 313 316 319 318 319 322 322 322 322 320 319 321 322 320 317 314 312 312 314 315 317 319 321 322 323 323 322 321 321 322 325 326 326 326 327 328 328 328 328 328 328 328 328 329 329 328 328 328 327 325 322 322 323 325 325 325 325 326 326
313 313 313 317 322 324 321 320 321 321 321 321 321 321 318 315 314 312 310 310 315 319 321 321 322 322 322 322 322 322 322 322 323 323 324 324 325 326 326 327 327 328 328 328 329 329 329 329 329 328 328 327 325 324 322 322 323 322 323 324 326 326
313 313 316 321 325 325 323 322 322 322 322 319 321 319 313 310 309 308 310 313 319 322 322 322 322 322 322 321 320 321 321 322 322 323 323 323 322 323 324 325 325 326 327 328 328 329 329 328 328 328 328 327 326 325 325 324 324 322 320 322 325 326
312 315 317 321 323 322 322 322 321 323 323 321 321 315 309 311 311 309 310 313 318 321 321 321 321 320 320 320 320 319 319 320 321 321 322 321 322 322 323 324 324 324 326 328 328 328 328 328 328 328 327 327 326 326 326 325 325 324 322 322 324 323
313 316 317 319 319 319 319 318 317 319 319 316 315 312 309 311 310 308 309 310 313 317 318 319 317 314 315 318 320 318 318 318 319 321 321 321 321 321 322 323 323 324 325 326 327 327 328 327 327 328 327 327 326 326 326 326 325 324 323 324 324 324
313 315 316 317 316 315 314 314 311 312 311 309 310 311 311 310 308 308 308 308 309 310 311 313 312 309 310 315 319 319 317 316 316 318 318 320 321 321 321 321 321 323 324 325 326 326 326 326 326 327 327 327 327 326 326 327 326 325 324 324 324 325
313 314 315 315 314 312 311 310 309 309 308 309 311 311 310 309 308 308 307 307 308 308 307 308 307 307 307 311 316 317 315 315 314 311 310 313 316 315 316 320 322 322 323 324 324 324 324 325 325 325 325 325 325 325 325 326 327 326 324 324 324 324
313 313 314 314 313 311 311 309 309 310 310 312 313 311 310 309 308 308 308 308 307 307 308 307 307 307 306 307 311 314 315 314 311 308 306 307 308 306 308 315 318 319 322 323 323 323 323 323 324 323 323 322 322 323 324 325 325 326 326 325 325 325
313 312 313 314 312 311 310 310 311 313 312 314 314 311 309 309 308 309 309 308 308 307 308 307 307 307 306 306 307 309 311 311 308 307 306 306 306 305 306 307 308 311 316 319 321 322 321 321 323 323 321 321 322 322 323 324 324 325 325 323 324 325
315 312 313 314 313 311 310 310 313 315 314 314 313 311 309 309 309 309 309 309 309 308 308 308 307 307 307 307 306 307 307 307 307 307 307 306 307 307 306 306 306 306 308 310 314 316 313 313 316 320 320 320 320 321 321 323 323 322 322 322 323 323
319 313 312 313 313 312 311 311 315 317 315 314 313 309 309 309 309 309 310 310 309 309 308 308 308 308 307 307 307 307 307 307 307 307 307 307 307 307 307 307 307 307 306 306 307 308 307 306 308 314 318 319 320 320 320 321 321 322 322 320 318 318
324 317 313 312 313 312 311 311 316 318 316 316 313 309 309 310 309 310 310 310 310 310 310 309 308 308 308 308 308 308 308 307 307 307 307 307 307 307 307 307 307 307 307 307 306 306 306 306 305 308 311 314 315 316 318 319 318 317 316 313 308 309
329 323 317 313 312 312 311 312 316 318 317 316 313 311 310 309 309 310 310 310 310 311 312 311 310 308 308 308 308 308 308 308 307 307 307 307 307 307 307 306 307 306 306 307 307 306 306 306 306 305 306 307 307 308 310 311 309 309 308 305 305 305
329 327 324 318 313 311 311 312 316 319 318 316 314 312 312 311 310 310 311 311 311 311 312 313 312 311 310 309 308 308 308 308 308 307 307 307 307 307 307 306 306 306 306 306 306 306 306 305 305 305 305 305 305 304 305 305 304 305 305 304 304 305
327 328 328 324 319 316 312 313 316 319 319 318 314 313 315 314 312 311 313 313 312 313 313 313 313 313 313 311 310 309 309 308 308 308 308 308 307 307 307 307 306 306 306 306 306 306 305 305 304 304 304 304 304 304 303 303 303 303 303 303 303 304
326 327 328 325 322 320 317 316 318 319 319 319 315 314 317 318 316 315 317 317 317 316 315 314 314 314 314 313 311 311 310 310 309 309 308 308 308 307 307 307 307 306 306 306 306 306 305 305 304 304 304 304 304 303 303 303 303 303 303 303 303 303
Wind_Speed
17 16 16 15 14 13 14 14 14 14 14 15 14 11 8 7 7 7 8 7 7 8 7 7 7 7 8 8 9 8 7 5 4 3 3 3 2 2 2 2 2 2 2 2 3 5 6 6 7 9 12 17 17 16 15 7 6 9 7 5 6 7
17 17 16 14 14 13 13 13 13 13 14 14 12 10 7 6 7 7 6 7 7 8 7 6 6 6 8 9 9 8 7 6 5 4 3 3 3 3 2 2 2 2 3 3 4 5 6 6 6 8 9 15 18 17 13 5 5 6 6 6 7 7
17 16 15 14 14 13 13 13 13 14 14 13 10 9 8 7 8 7 7 8 8 8 7 6 6 7 8 9 9 9 8 6 6 5 4 3 2 2 2 2 2 3 3 4 5 5 7 7 6 6 6 10 15 16 11 4 4 3 5 7 7 8
16 15 15 14 13 13 13 14 14 14 14 11 10 10 8 8 9 9 9 9 8 9 8 7 7 7 7 8 9 9 8 7 6 5 5 3 2 2 2 2 2 3 3 4 5 6 8 9 7 6 3 4 9 14 11 4 4 3 3 5 7 8
14 13 13 13 13 13 13 14 14 14 13 10 10 10 8 8 9 9 9 9 9 10 9 8 7 6 7 8 9 9 9 8 6 6 5 4 3 2 1 2 2 2 2 4 5 7 8 6 6 7 4 2 2 9 11 6 5 5 3 4 8 8
13 11 11 12 12 12 12 13 13 13 11 9 9 10 9 9 9 9 10 9 10 11 10 9 8 7 7 7 7 9 10 9 8 7 6 5 4 2 1 2 3 3 3 5 6 5 4 2 3 3 2 2 1 3 6 6 7 6 5 5 8 8
13 12 11 11 11 10 10 11 11 10 9 8 7 8 9 9 8 9 11 10 10 11 9 8 8 7 7 7 8 9 11 10 8 7 5 4 4 4 3 2 3 5 6 7 5 3 1 2 3 1 4 3 3 3 1 7 9 7 6 7 8 8
13 12 11 11 10 10 9 9 8 8 8 7 6 5 7 8 8 9 10 11 11 10 9 8 8 9 8 8 8 10 10 9 8 7 6 5 5 6 3 2 3 6 7 8 6 3 1 3 2 3 6 6 5 5 4 8 10 8 8 8 8 7
13 11 10 10 9 9 8 7 7 7 7 5 4 5 5 6 7 9 10 11 12 10 9 9 9 9 8 8 8 10 9 8 8 9 9 8 8 7 5 4 5 5 7 8 8 6 3 3 5 7 9 9 7 6 6 8 9 8 9 8 8 7
13 12 11 10 8 8 7 6 6 6 6 5 5 6 6 6 6 8 8 10 11 10 9 10 10 10 8 7 8 9 9 8 9 9 9 9 9 9 7 6 6 5 6 8 10 11 8 7 6 7 9 10 10 8 6 7 10 10 9 8 7 7
11 10 10 9 7 7 5 5 5 4 5 6 6 7 7 7 6 7 8 9 10 9 9 11 11 9 9 8 8 8 9 9 9 9 9 9 10 11 10 9 8 7 7 8 11 12 11 11 8 6 7 7 9 9 8 7 10 11 10 9 8 6
10 9 10 9 6 7 6 5 5 4 5 6 6 7 6 6 6 7 9 9 9 10 10 11 10 9 9 8 7 7 8 9 9 8 8 8 8 11 11 11 11 10 7 6 12 13 11 12 11 10 8 7 8 10 9 9 9 10 10 10 8 5
12 12 11 9 8 9 9 7 6 6 6 6 6 6 5 5 5 6 8 9 10 11 11 11 10 9 8 6 6 7 8 9 9 9 9 8 7 9 9 11 11 10 8 6 11 13 11 12 12 13 11 7 8 9 10 10 10 10 9 10 8 6
14 15 13 10 10 12 10 7 7 7 6 5 5 5 4 5 4 4 5 6 8 10 10 9 10 10 8 7 8 9 9 10 11 10 9 8 8 9 8 9 11 11 10 7 10 12 11 11 11 12 14 11 9 8 10 12 11 11 11 12 11 8
16 17 17 13 12 12 11 9 7 5 3 3 3 3 4 3 3 3 3 4 5 7 7 7 8 10 9 9 10 10 10 11 12 11 9 8 9 10 9 9 10 11 10 7 9 11 10 12 12 11 15 16 12 9 11 12 13 14 12 11 12 10
20 20 18 16 15 12 11 9 7 4 3 4 4 5 5 3 2 1 2 3 3 3 5 5 6 8 7 8 9 10 11 11 12 12 10 9 9 9 8 8 9 9 10 9 9 9 9 11 14 15 17 17 14 11 13 13 13 17 12 7 10 10
19 19 17 17 15 13 12 9 7 5 5 6 7 8 7 5 4 4 4 3 2 2 4 3 3 4 5 6 8 10 11 11 11 11 11 10 10 10 8 7 8 9 11 11 11 10 10 10 10 15 20 18 14 12 14 13 12 16 15 8 8 9
17 16 15 15 14 15 14 10 9 10 9 8 7 7 7 6 5 6 6 5 4 5 4 4 3 2 2 3 5 7 9 9 9 10 11 11 11 10 10 9 8 10 12 13 13 12 12 11 7 11 18 16 11 12 15 15 12 13 15 12 9 8
16 16 15 14 13 14 13 11 12 14 13 11 10 10 8 5 4 4 4 5 6 6 5 5 5 4 3 2 1 2 4 4 5 7 8 9 9 9 10 9 8 9 11 14 15 14 13 11 7 10 15 15 12 13 16 17 15 12 13 14 11 8
16 16 15 14 13 13 13 15 16 15 14 13 12 12 10 8 5 4 3 4 7 8 7 5 5 5 2 2 1 2 3 3 3 3 4 5 7 8 9 9 8 8 9 12 14 13 14 13 10 10 14 16 17 16 18 20 19 16 14 14 14 12
18 16 15 15 14 14 15 16 16 13 11 9 10 12 12 10 8 5 3 2 5 5 6 6 6 7 5 4 2 2 3 3 3 3 3 3 3 6 8 8 7 7 8 11 12 13 14 13 11 11 11 13 15 16 18 21 20 19 17 15 16 15
19 17 15 15 15 14 13 14 14 13 11 9 10 11 10 10 7 5 3 2 6 11 12 11 11 11 9 7 4 2 0 1 1 2 3 3 2 1 3 5 6 8 9 10 12 14 14 12 11 10 10 11 11 12 15 18 21 19 18 18 18 17
19 18 16 15 15 14 13 13 13 13 12 10 11 10 7 9 8 6 6 7 11 15 15 13 12 11 10 8 7 4 3 4 5 6 6 6 6 6 5 3 1 4 7 10 11 13 13 13 13 10 9 10 9 10 10 12 18 18 15 16 16 16
19 18 18 18 17 16 16 15 14 14 12 9 9 7 7 11 10 8 10 11 14 13 12 12 11 10 9 9 9 7 5 5 5 6 7 7 8 8 8 8 6 3 3 8 10 11 11 12 12 11 10 9 8 8 7 6 10 13 13 14 14 14
19 19 20 21 19 18 18 19 18 17 14 11 10 9 10 13 11 10 11 11 13 14 13 12 10 9 9 10 10 9 7 5 4 6 8 7 7 7 6 7 7 7 6 5 6 8 9 9 11 11 11 10 8 7 7 6 5 7 10 12 13 14
20 20 20 21 20 18 18 18 18 18 16 14 14 12 12 13 12 11 11 11 12 13 12 10 7 6 9 12 11 9 8 6 7 8 8 8 7 6 4 5 6 8 9 7 4 4 5 6 7 9 11 10 8 6 7 8 6 6 8 10 11 13
21 20 20 19 19 18 18 16 15 15 15 16 17 15 14 13 13 12 10 10 11 11 10 9 8 6 8 13 13 10 9 8 9 9 8 8 7 6 5 4 6 7 8 9 8 7 7 6 4 5 6 7 7 7 7 7 7 6 7 9 9 10
23 21 19 18 18 18 18 17 16 16 16 16 16 16 15 14 13 12 11 11 11 11 12 11 11 10 10 12 13 11 9 8 8 7 6 8 8 7 8 8 6 6 6 7 8 8 8 8 7 8 8 6 4 4 5 7 7 8 7 7 7 8
24 23 20 19 19 18 17 18 18 18 17 17 15 15 16 15 13 12 12 12 11 11 11 12 12 12 12 12 12 12 10 8 7 8 8 8 7 7 8 9 9 7 8 7 7 7 7 8 8 9 10 9 8 7 5 4 6 7 7 5 4 4
26 24 22 20 19 19 18 19 18 17 17 17 16 15 16 15 14 12 12 12 11 11 11 11 12 12 12 12 12 11 9 7 7 8 10 10 11 10 9 8 6 7 9 9 9 8 6 7 7 6 7 7 8 7 7 7 6 6 5 4 4 4
27 26 25 22 21 20 19 19 19 16 16 17 16 16 17 15 14 12 11 11 11 11 10 10 11 11 11 11 11 11 9 8 8 9 10 10 10 10 10 10 8 8 7 7 8 7 6 7 8 8 7 7 7 8 7 7 6 6 5 4 5 6
28 28 26 24 22 21 20 20 20 18 16 16 15 15 17 15 13 12 10 9 10 11 10 9 10 10 10 10 9 10 10 9 9 9 10 10 10 10 10 9 8 8 8 7 7 5 5 6 8 10 10 9 8 7 7 6 6 6 6 5 5 6
30 30 28 26 23 22 21 20 21 20 16 15 14 13 15 14 12 11 9 8 8 10 10 9 9 10 9 9 8 8 9 9 9 8 9 9 9 9 10 9 8 8 7 7 6 6 6 7 7 7 8 8 7 7 7 7 7 7 7 7 6 6
30 30 28 26 25 22 21 21 22 21 17 14 13 13 13 12 11 10 8 6 6 7 8 8 8 9 9 9 8 8 8 8 7 7 7 6 6 8 10 9 8 7 7 6 6 5 5 6 6 6 5 5 5 5 5 5 5 5 5 4 3 3
25 27 28 26 25 23 21 21 22 21 18 14 13 13 12 11 9 9 7 6 4 4 5 5 6 6 7 7 7 8 8 7 6 6 6 5 5 7 8 8 8 7 6 7 6 5 5 5 5 5 5 5 5 5 4 2 1 1 3 2 1 2
25 26 28 25 23 22 20 21 22 22 19 15 14 13 13 11 9 8 7 6 4 3 2 2 2 3 4 5 5 6 6 6 6 5 5 4 4 5 6 6 6 6 6 6 6 6 6 6 5 5 6 5 5 6 5 5 4 4 5 4 2 2
27 25 26 24 23 22 21 21 21 22 21 17 15 15 13 11 9 8 7 6 5 4 2 2 2 2 2 2 3 5 5 5 5 4 4 4 3 3 4 5 5 5 6 6 6 7 6 6 6 6 6 6 6 6 6 5 5 5 5 5 5 3
Wind_Direction
162 168 173 171 170 170 168 166 161 157 158 162 163 159 151 144 164 175 165 168 175 177 183 183 189 197 200 206 207 209 212 213 210 208 221 233 238 238 227 193 170 150 126 126 122 131 144 145 141 131 144 159 155 149 142 136 178 184 191 226 279 289
165 173 177 176 175 177 177 173 167 169 173 177 178 178 172 156 172 196 188 188 194 188 191 196 197 204 208 210 213 218 214 209 208 210 222 222 231 240 235 227 223 180 152 139 124 131 137 130 133 132 140 157 161 153 142 148 171 176 205 231 271 280
167 173 175 175 177 182 185 181 177 182 187 187 192 198 192 176 183 205 204 204 208 201 202 211 213 209 211 213 216 222 214 209 210 216 223 216 227 240 254 256 247 225 186 156 127 123 124 112 109 120 135 157 170 165 149 159 165 168 227 230 257 268
166 171 174 171 176 183 185 188 187 193 198 195 201 211 209 199 197 207 209 214 217 210 215 224 226 215 211 214 216 219 213 213 214 221 227 213 221 243 278 291 273 258 213 169 139 139 131 113 99 98 112 154 176 179 175 199 191 187 217 223 252 268
165 170 173 169 173 181 183 189 192 197 203 198 203 214 221 214 207 211 213 220 221 218 223 227 234 230 222 219 217 218 215 216 217 227 235 213 210 238 292 339 354 323 207 171 141 140 139 121 102 97 94 113 178 190 189 213 215 206 204 231 261 271
161 166 168 170 174 179 181 184 191 198 199 193 202 212 218 220 214 214 215 219 222 219 221 224 234 234 228 230 226 223 219 215 214 223 233 216 197 173 125 75 58 54 113 143 127 122 133 94 74 96 127 135 258 204 180 223 231 217 221 236 265 273
156 162 165 171 176 176 177 180 189 201 200 192 199 208 216 219 214 217 215 212 215 213 217 224 229 222 220 231 229 223 218 214 213 217 225 221 203 179 156 123 108 99 114 136 123 97 99 5 18 279 239 201 248 273 272 262 239 221 232 237 261 272
155 164 167 170 175 173 172 178 192 202 198 189 192 210 216 210 209 219 215 211 217 218 223 226 221 214 214 222 223 221 218 214 216 216 213 212 214 204 193 210 172 142 148 156 135 105 330 291 263 221 223 218 233 256 280 267 240 228 237 239 261 270
158 166 171 171 173 168 166 174 190 200 194 191 194 207 217 213 211 216 213 216 225 225 227 226 217 217 223 226 221 220 220 217 222 225 217 209 218 224 216 226 215 170 163 158 145 159 200 216 221 217 210 208 205 213 242 258 255 247 238 239 262 268
158 165 173 175 173 166 163 172 183 195 206 216 202 197 218 226 217 212 214 220 226 225 225 224 220 225 233 229 217 220 224 220 223 230 229 216 219 231 233 239 237 206 182 166 159 172 182 177 199 224 217 209 200 199 216 250 266 262 247 240 254 267
157 160 161 162 166 166 164 170 182 195 214 223 204 199 215 218 209 210 217 221 225 228 227 221 221 229 231 224 215 219 226 225 225 229 232 222 219 227 230 235 235 221 209 190 178 179 188 191 193 206 222 220 213 221 216 231 265 265 262 251 244 261
156 147 142 145 147 152 151 151 165 174 189 205 205 209 218 215 201 202 214 223 228 230 229 223 223 226 226 227 218 216 227 231 233 233 229 222 226 232 231 236 239 232 230 210 192 188 192 196 196 205 224 231 235 252 229 218 256 262 267 261 241 250
159 148 138 139 138 139 140 143 154 158 169 186 194 200 207 210 201 198 207 219 225 223 221 220 221 223 224 233 234 232 240 237 233 232 226 221 232 238 234 241 249 246 248 231 194 189 191 191 195 208 214 212 225 244 226 218 242 254 264 258 244 254
159 149 142 146 151 147 146 152 159 153 155 168 172 171 181 196 197 198 203 216 229 226 225 222 222 231 234 244 247 239 239 241 239 235 231 226 231 235 229 236 248 247 250 246 202 194 199 195 196 208 210 206 208 219 224 221 224 239 257 254 249 256
159 152 149 154 161 157 157 168 173 155 150 165 153 136 148 159 158 189 197 208 229 231 233 223 219 231 231 233 243 240 238 244 246 243 241 236 232 233 229 232 243 245 244 244 223 209 206 207 207 210 212 214 214 214 223 215 206 219 239 248 244 245
170 166 162 162 166 167 166 171 181 178 168 152 115 100 117 113 95 135 167 186 214 219 222 214 215 229 228 225 236 246 247 242 241 243 243 242 240 239 235 234 236 239 235 226 219 209 201 211 220 222 219 218 218 218 224 217 203 208 215 230 234 233
175 176 174 170 170 174 172 171 177 165 145 137 115 98 97 91 82 80 95 133 155 142 175 183 200 229 234 234 235 244 248 244 243 246 244 241 242 244 246 242 234 228 224 218 211 210 213 214 227 231 221 218 221 221 224 220 203 201 203 203 210 223
167 168 172 172 169 173 175 172 160 141 131 128 125 122 115 103 95 91 101 118 108 100 130 148 146 166 181 205 225 235 242 249 248 244 245 245 243 246 248 243 234 225 220 218 211 212 222 219 228 230 213 211 226 227 223 220 206 196 195 192 190 207
160 161 165 166 163 162 160 148 134 139 145 134 118 120 132 138 118 109 117 121 120 121 140 156 158 163 146 137 203 239 223 241 248 238 243 247 245 245 247 241 231 225 216 217 217 217 223 219 218 221 210 212 229 237 233 224 217 207 195 191 187 176
161 161 161 161 159 148 137 131 129 141 151 143 135 136 143 156 160 187 215 165 162 163 161 166 164 170 154 102 47 286 230 229 250 257 263 257 249 240 242 241 229 226 217 219 225 223 226 227 220 215 216 221 228 235 235 228 224 220 209 203 202 192
161 161 162 161 156 144 135 134 137 147 148 143 160 169 170 175 186 208 226 170 163 151 149 164 153 147 138 117 140 255 265 269 269 285 314 307 275 251 242 243 237 230 223 225 230 227 227 232 227 219 221 225 230 233 231 228 225 222 220 219 218 214
162 162 164 160 149 137 133 135 141 147 142 137 152 165 174 184 196 195 171 133 116 99 98 114 121 129 136 130 133 164 292 353 82 97 41 40 36 303 245 251 255 240 225 223 225 226 226 224 223 221 218 222 231 238 235 230 225 224 225 227 231 228
166 167 162 152 143 136 135 138 145 148 144 140 145 152 157 160 168 154 131 121 113 101 97 110 121 129 140 143 137 125 102 96 105 104 84 75 81 84 85 80 324 245 226 220 217 220 221 217 218 213 206 216 231 241 244 233 226 228 225 220 226 228
170 171 159 152 153 154 151 149 154 156 152 146 144 148 135 128 126 114 115 120 121 116 113 124 136 142 152 163 155 144 128 118 117 110 104 97 95 97 93 90 84 84 188 212 213 214 218 219 220 212 207 218 226 230 240 236 226 230 228 221 225 224
176 171 161 161 165 166 163 161 162 162 160 159 157 156 137 124 116 110 117 125 131 137 137 140 150 160 173 180 171 163 153 140 148 129 119 123 121 115 114 107 95 87 110 170 199 206 212 216 218 215 210 212 210 213 223 217 204 215 221 225 234 232
180 174 171 172 171 173 170 167 167 167 170 167 160 151 137 127 121 116 114 117 128 140 149 158 164 157 167 174 171 165 156 152 169 158 137 137 136 131 141 131 115 105 103 107 123 161 180 189 206 209 206 209 210 210 215 210 200 201 206 213 225 227
185 181 180 178 175 176 175 171 168 165 166 162 154 146 136 128 121 116 112 113 118 121 129 143 144 124 137 159 168 160 142 138 156 168 176 183 176 171 185 167 136 130 124 117 112 115 122 124 144 174 184 206 221 222 221 215 205 199 201 208 214 217
190 188 187 182 179 178 173 169 164 160 159 156 151 143 138 133 126 126 121 113 109 105 106 112 115 108 110 138 158 153 134 130 132 132 160 190 192 190 194 189 172 155 145 137 133 133 127 116 116 121 118 126 157 189 213 220 215 203 197 207 216 218
196 195 193 187 182 179 174 168 162 156 151 151 152 147 143 139 135 132 122 111 107 102 100 102 105 107 105 116 135 141 139 137 121 105 110 124 129 136 163 185 196 189 170 153 147 152 145 134 137 134 125 126 127 119 129 171 199 199 190 194 207 207
202 200 196 191 187 181 175 170 164 154 147 152 161 157 149 145 141 134 119 115 114 109 105 105 106 108 108 109 116 126 134 129 112 107 107 103 101 104 117 137 158 175 179 176 172 174 172 167 166 153 142 143 143 137 132 138 150 161 164 170 171 159
208 207 200 193 191 184 178 174 164 154 151 157 165 164 157 152 148 138 125 122 121 115 108 105 106 107 106 108 111 115 118 114 108 107 105 101 98 96 94 97 99 110 135 157 170 181 184 181 177 168 163 157 149 149 148 147 148 150 157 171 174 169
213 210 204 197 193 187 181 175 165 160 159 161 168 166 159 157 152 145 137 129 123 117 113 108 107 108 106 105 107 111 110 106 103 100 100 99 97 96 90 85 86 91 98 109 121 129 125 138 158 167 174 178 170 163 160 161 169 180 199 221 222 210
220 216 208 199 196 192 184 174 167 167 166 166 173 166 158 161 156 151 149 138 127 121 118 111 107 107 107 106 104 106 105 100 98 94 92 91 92 98 94 85 85 88 90 96 97 100 103 109 127 150 169 180 179 181 189 194 202 213 223 236 240 228
220 218 213 203 197 193 187 176 169 173 173 169 174 168 161 165 159 155 156 141 128 122 116 108 106 106 103 105 105 101 99 95 94 93 90 88 91 100 100 92 89 89 91 96 96 95 98 102 110 124 140 148 144 157 186 204 219 225 216 219 220 198
215 213 214 211 201 193 187 178 172 177 181 175 175 175 172 173 168 163 158 143 129 114 104 94 96 99 94 95 93 91 93 92 90 90 89 87 79 86 95 94 92 94 95 94 97 101 102 103 109 111 114 125 127 124 125 141 160 133 128 146 182 163
216 211 208 202 194 191 188 182 177 180 187 185 179 182 184 185 179 173 164 149 142 124 104 71 62 72 73 69 66 70 79 88 90 86 84 86 77 73 83 91 93 92 93 95 98 101 99 101 103 103 108 116 119 108 96 93 86 81 83 71 76 132
211 207 205 195 187 189 188 185 182 184 191 192 186 187 190 187 176 176 177 163 165 177 193 247 298 329 356 12 22 34 44 61 74 72 71 78 79 71 76 92 97 91 91 98 99 95 92 95 93 88 96 107 108 101 93 90 85 78 78 72 68 63